Regional Weather Roundup
Issued by NWS

Home | Current Version | Previous Version | Text Only | Print | Product List | Glossary On
Versions: 1 2 3 4 5 6 7 8 9 10 11 12 13 14 15 16 17 18 19 20 21 22 23 24 25 26 27 28 29 30 31 32 33 34 35 36 37 38 39 40 41 42 43 44 45 46 47 48 49 50
000
ASUS46 KSEW 271110
RWRWA

WASHINGTON REGIONAL WEATHER ROUNDUP
NATIONAL WEATHER SERVICE SEATTLE WA
400 AM PDT MON MAR 27 2017

NOTE:"FAIR" INDICATES FEW OR NO CLOUDS BELOW 12,000 FEET WITH NO
SIGNIFICANT WEATHER AND/OR OBSTRUCTIONS TO VISIBILITY.

WAZ507-509-555>559-271200-
SEATTLE, TACOMA, EVERETT, AND VICINITY

CITY           SKY/WX    TMP DP  RH WIND       PRES   REMARKS
EVERETT        MOCLDY    44  42  93 SE15      29.88S
BOEING FIELD   PTCLDY    44  44 100 S7        29.91R
RENTON         CLOUDY    45  44  97 VRB5      29.91R
SEATAC AIRPORT MOCLDY    44  42  93 S9        29.90R
JBLM-MCCHORD   MOCLDY    40  40 100 SE3       29.91R
PUYALLUP         N/A     43  43 100 CALM      29.91R
BREMERTON      MOCLDY    43  43 100 S8        29.92R
JBLM-FT LEWIS  CLOUDY    41  41 100 SE6       29.90S
TACOMA NARROWS CLOUDY    45  43  93 S7        29.91R
$$

WAZ001-503-506-510-514-515-271200-
NORTH INTERIOR

CITY           SKY/WX    TMP DP  RH WIND       PRES   REMARKS
BELLINGHAM     CLOUDY    46  43  89 E7        29.87R
FRIDAY HARBOR  CLOUDY    46  42  86 E5        29.87R
EASTSOUND      CLOUDY    46  43  87 S9        29.84S
PORT ANGELES   CLOUDY    40  40 100 SW5       29.85R
EDIZ HOOK      PTSUNNY   46  42  87 S3        29.86R
PORT TOWNSEND  FAIR      37  37 100 CALM      29.87R
NAS WHIDBEY    CLOUDY    48  41  76 S12       29.90R
ARLINGTON      CLOUDY    45  36  70 SE13      29.91S
BURLINGTON     CLOUDY    46  43  87 SE13      29.87S
$$

WAZ020-022-039-040-504-511-512-271200-
SOUTHWEST INTERIOR

CITY           SKY/WX    TMP DP  RH WIND       PRES   REMARKS
SHELTON        LGT RAIN  44  42  93 S3        29.88R
OLYMPIA        LGT RAIN  45  44  97 SW5       29.91R
CHEHALIS       CLOUDY    46  45  93 S7        29.91S
KELSO          LGT RAIN  46  45  96 S3        29.95R
VANCOUVER      LGT RAIN  48  46  93 S6        29.96S
SCAPPOOSE, OR  CLOUDY    46  45  96 S5        29.95R
PORTLAND, OR   LGT RAIN  47  44  90 S7        29.97R
$$

WAZ021-516-517-271200-
WASHINGTON COAST

CITY           SKY/WX    TMP DP  RH WIND       PRES   REMARKS
FORKS          CLOUDY    43  42  97 SE5       29.84R
HOQUIAM        MOCLDY    45  44  97 SE7       29.89R
ASTORIA, OR    LGT RAIN  44  41  89 S8        29.92R
$$

WAZ019-023-024-040-567>569-271200-
CASCADE MOUNTAINS AND COLUMBIA GORGE

CITY           SKY/WX    TMP DP  RH WIND       PRES   REMARKS
STAMPEDE PASS  NOT AVBL
TROUTDALE, OR  LGT RAIN  48  44  86 S3        29.97S
THE DALLES, OR CLOUDY    42  40  92 CALM      29.96R
$$

WAZ026-027-041>044-520-521-271200-
EAST SLOPES

CITY           SKY/WX    TMP DP  RH WIND       PRES   REMARKS
OMAK           CLOUDY    40  37  89 W3        29.85R
WENATCHEE      PTCLDY    36  34  92 CALM      29.86R
ELLENSBURG     PTCLDY    35  32  88 W8        29.86R
YAKIMA         PTCLDY    35  33  92 CALM      29.90R
SUNNYSIDE ARPT   N/A     35  35  99 CALM      29.90R
$$

WAZ028-034-035-271200-
COLUMBIA BASIN

CITY           SKY/WX    TMP DP  RH WIND       PRES   REMARKS
EPHRATA        CLOUDY    41  37  86 S5        29.84S
MOSES LAKE     CLOUDY    43  41  93 W3        29.87R
PASCO          CLOUDY    46  40  79 W5        29.91R
HERMISTON, OR  CLOUDY    46  42  86 SW8       29.92R
$$

WAZ036>038-271200-
NORTHEAST WASHINGTON

CITY           SKY/WX    TMP DP  RH WIND       PRES   REMARKS
SPOKANE GEIGER LGT RAIN  41  40  96 SE6       29.82S FOG
SPOKANE FELTS  LGT RAIN  42  41  96 CALM      29.84S FOG
FAIRCHILD AFB  LGT RAIN  41  41 100 S5        29.81S
COEURDALENE,ID LGT RAIN  40  40 100 S3        29.84S FOG
DEER PARK      LGT RAIN  41  39  93 SE3       29.83S
$$

WAZ029>033-271200-
SOUTHEAST WASHINGTON

CITY           SKY/WX    TMP DP  RH WIND       PRES   REMARKS
PULLMAN        CLOUDY    42  39  89 SW14G23   29.87R
LEWISTON, ID   LGT RAIN  44  42  93 CALM      29.88R FOG
WALLA WALLA    CLOUDY    46  42  86 S9        29.92R
PENDLETON, OR  CLOUDY    43  41  93 W7        29.92R
$$



USA.gov is the U.S. government's official web portal to all federal, state and local government web resources and services.